Wind_Speed
9 10 10 10 11 11 11 11 11 11 10 10 10 9 9 9 8 8 8 8 7 7 6 6 5 5 5 6 6 5 5 5 5 4 4 4 3 3 2 2 1 1 0
10 11 11 11 11 12 12 12 12 12 11 11 11 11 10 10 10 10 10 9 9 8 8 7 7 6 7 7 7 7 7 6 6 5 5 5 5 4 3 3 2 2 1
12 12 12 12 12 12 12 12 13 12 12 12 12 12 11 11 11 11 11 11 10 10 10 9 9 8 8 8 9 9 8 7 7 6 6 6 5 5 4 3 2 2 2
13 13 13 13 13 13 13 13 14 14 13 13 13 12 12 12 12 12 13 13 13 12 12 11 11 10 10 9 10 10 9 9 8 8 7 7 7 6 5 4 4 3 3
15 15 15 15 15 14 14 14 15 15 14 14 14 14 13 14 14 13 14 14 14 14 14 13 13 12 11 11 10 11 11 10 10 9 9 8 8 7 6 6 5 5 4
17 17 16 16 16 16 16 16 16 16 16 16 15 15 15 15 15 15 15 15 15 15 15 15 14 14 13 12 11 12 12 12 11 11 10 10 9 9 8 7 7 7 6
18 19 19 19 19 19 18 18 18 17 17 17 17 17 16 16 16 16 16 16 16 16 17 16 16 15 14 14 13 13 13 14 13 12 12 12 11 10 10 9 8 8 8
20 20 21 21 21 21 21 21 20 20 20 19 19 19 19 18 18 18 18 18 18 18 18 18 17 17 16 16 15 14 14 14 14 13 12 12 12 12 11 10 10 10 9
23 23 23 23 23 23 23 22 22 22 22 22 21 21 21 20 20 20 20 20 19 19 19 20 19 19 19 18 17 16 16 16 15 15 14 13 13 13 13 12 11 11 11
25 25 25 25 25 25 25 25 24 24 24 24 23 23 23 23 22 21 21 21 21 21 21 21 21 21 20 20 19 18 18 17 17 17 16 15 15 15 15 14 13 13 12
27 27 27 27 27 27 27 27 26 26 26 26 26 25 25 25 24 24 23 23 23 23 23 23 23 23 23 22 21 21 20 20 19 19 18 18 17 17 17 16 15 15 14
29 29 30 29 29 29 29 29 29 29 28 28 28 27 27 27 27 26 26 25 25 25 25 25 26 26 25 25 24 23 23 22 22 21 20 20 20 19 19 18 18 17 16
30 31 31 31 31 31 31 31 31 31 31 30 30 30 29 29 29 29 28 28 28 27 27 27 27 28 28 27 27 26 26 25 25 24 23 23 22 22 21 21 20 19 19
31 31 32 32 33 33 33 33 33 33 33 33 33 33 32 31 31 31 31 30 30 30 29 30 29 30 30 30 29 29 28 28 28 27 26 25 25 24 24 24 23 22 22
33 33 33 34 34 35 35 35 35 35 35 35 34 34 35 34 33 33 33 33 33 33 32 32 31 31 32 32 32 32 31 31 30 30 29 28 27 27 26 26 26 25 24
34 34 35 35 36 37 37 37 37 37 37 37 37 37 37 36 36 36 36 36 36 35 35 34 34 33 33 34 33 33 33 32 32 32 32 31 30 29 29 28 28 28 27
36 37 37 38 38 38 38 39 39 39 40 39 39 40 39 39 39 38 38 38 38 37 37 37 36 36 36 35 35 35 35 34 34 34 34 34 33 32 31 31 30 30 30
38 38 38 39 39 39 39 40 41 41 41 41 41 41 41 41 41 41 41 40 39 39 39 39 39 39 38 38 37 37 37 37 37 37 37 36 36 35 34 33 33 32 32
39 39 40 40 40 40 41 41 42 42 42 42 42 42 43 42 42 42 43 42 42 41 41 41 41 41 40 40 40 40 40 39 39 39 39 39 38 38 37 36 35 35 34
40 40 41 41 42 42 42 43 43 43 43 43 43 44 45 44 44 44 44 45 45 44 44 44 44 44 43 43 43 42 42 42 42 42 41 41 41 40 39 39 38 38 37
40 40 41 41 42 42 43 44 44 44 44 44 44 44 46 46 46 46 46 47 47 47 46 46 46 46 46 45 45 45 45 45 44 44 44 43 43 43 42 41 41 40 40
40 41 41 41 42 43 44 44 45 45 46 46 46 46 47 47 47 48 48 49 49 48 48 48 48 48 48 48 48 48 47 47 47 46 46 46 45 45 45 44 44 43 43
40 41 41 42 42 43 44 45 45 46 46 46 47 48 48 48 49 49 50 50 50 50 49 50 50 50 50 50 50 50 49 48 48 48 48 48 48 48 47 47 46 46 45
40 40 41 41 42 43 43 44 45 46 47 47 47 48 49 50 50 50 51 51 51 51 51 51 52 52 52 51 51 51 51 51 51 50 50 50 50 50 50 50 49 49 49
40 40 41 41 42 43 44 44 45 46 46 47 48 49 50 50 51 51 52 52 52 52 52 53 53 52 52 52 52 52 53 53 53 53 53 53 53 53 53 53 52 52 52
40 41 41 42 42 43 43 44 45 45 46 47 48 49 49 50 51 51 51 51 52 52 53 54 54 54 54 54 54 53 53 54 54 55 54 54 55 54 55 55 55 54 54
Wind_Direction
233 231 231 231 231 227 225 227 228 227 224 225 227 229 230 229 229 225 226 226 228 228 232 235 241 246 242 237 235 241 246 242 239 237 236 237 236 238 241 234 229 229 271
236 235 235 233 232 232 230 230 232 233 232 232 234 235 236 236 237 236 234 233 236 238 241 244 249 251 249 243 241 241 242 241 237 240 241 240 240 235 236 243 236 223 224
238 239 237 236 237 235 235 235 235 237 236 237 239 240 243 241 242 242 241 240 241 244 247 249 252 254 254 248 244 242 239 240 238 241 242 239 237 233 229 230 235 226 217
242 242 242 240 241 242 243 242 241 241 240 241 243 244 246 246 247 245 244 242 243 246 249 250 251 255 255 252 247 242 241 242 240 240 239 238 236 233 229 228 233 235 233
244 244 244 244 244 246 247 247 246 245 246 246 246 246 246 248 251 251 248 246 246 247 249 251 252 254 254 252 249 244 242 243 242 242 241 237 234 232 232 232 234 238 239
244 244 245 246 245 247 247 250 250 248 248 248 249 250 249 249 251 252 252 249 249 249 249 250 252 252 251 250 250 247 242 242 244 243 240 237 236 235 236 236 238 240 241
247 246 246 247 247 247 248 249 250 251 250 250 250 250 251 251 252 251 254 253 251 252 251 250 251 252 251 251 251 250 245 241 242 243 241 239 239 238 239 240 242 244 245
249 248 248 249 249 248 249 250 251 252 252 251 252 251 251 253 253 253 253 253 252 253 253 251 251 252 252 250 250 250 246 242 241 241 242 239 240 241 242 243 246 247 247
251 251 251 251 251 251 251 250 251 252 253 252 252 251 251 253 253 254 253 252 252 252 252 252 251 251 251 250 248 248 247 245 241 242 243 241 241 242 243 245 248 251 251
252 252 253 253 253 253 253 252 252 252 252 252 252 253 253 253 254 254 254 254 253 252 252 253 252 252 251 250 248 247 246 245 243 244 245 245 243 243 244 245 248 251 252
253 253 254 254 253 254 254 253 252 252 251 252 252 254 255 255 254 254 255 255 255 254 253 252 252 252 252 251 249 248 247 245 245 245 246 246 246 244 245 246 248 250 251
255 254 253 254 254 254 253 253 252 252 252 252 253 254 255 255 255 255 255 256 256 255 254 252 252 252 252 251 249 248 248 247 247 247 248 248 248 247 246 247 249 250 251
257 255 254 254 254 254 254 253 253 252 253 254 254 254 255 255 256 256 256 257 257 256 255 254 252 252 252 251 250 248 248 249 249 248 248 249 249 249 248 249 250 251 252
258 257 257 256 256 255 254 253 253 253 253 253 254 254 254 255 255 256 257 257 257 257 256 256 255 253 252 252 251 250 249 250 249 249 249 249 250 250 250 249 250 251 252
259 259 258 257 257 256 255 254 253 253 253 253 253 254 254 254 255 257 258 257 258 258 258 257 256 254 253 252 252 251 250 250 250 250 250 250 250 250 251 251 251 251 252
259 259 259 259 258 258 256 255 254 253 253 253 254 254 255 255 256 257 259 259 258 258 258 256 256 254 253 252 252 252 250 250 250 250 250 251 251 251 251 252 252 252 252
260 260 260 260 260 259 257 255 254 254 253 254 254 255 256 256 257 257 259 260 259 257 257 256 255 255 254 253 252 252 251 251 251 251 251 251 251 251 251 252 252 252 252
261 261 261 261 261 260 258 256 255 255 254 253 254 255 256 256 257 257 258 259 260 259 257 257 256 255 254 254 253 253 253 252 252 252 251 251 251 251 251 252 252 252 252
261 262 262 262 261 259 258 257 256 255 255 254 254 255 256 256 257 257 258 259 259 258 258 257 257 256 255 255 254 254 253 252 252 252 251 251 252 252 252 252 252 252 252
262 262 262 262 261 259 258 257 256 256 255 255 255 255 255 255 256 256 257 258 258 257 257 257 257 257 257 256 255 255 255 253 252 252 251 251 252 252 252 252 253 252 252
263 263 262 261 260 259 259 257 256 256 255 254 255 255 256 256 257 257 257 257 259 259 258 258 257 257 257 257 256 255 255 254 253 252 251 251 252 252 252 252 253 253 253
262 262 262 261 260 259 258 257 257 256 255 256 256 256 257 257 258 259 259 258 259 259 258 258 258 258 257 257 257 256 255 254 254 253 252 251 251 252 253 252 252 253 253
262 262 262 261 260 259 258 259 258 258 258 259 260 258 258 259 259 259 260 260 259 258 258 258 258 258 258 258 257 257 256 255 255 253 252 252 251 252 252 253 253 253 253
262 262 261 261 260 260 259 259 260 259 259 261 261 260 259 259 259 259 259 260 259 258 258 257 257 258 258 258 258 257 256 256 255 253 252 252 252 252 252 253 254 254 254
262 262 262 261 261 261 260 260 260 260 261 261 261 261 261 262 262 261 261 260 259 259 258 257 257 258 258 258 258 258 257 256 255 254 253 252 252 252 253 253 254 255 255
262 262 262 263 262 262 262 262 262 262 262 262 261 261 262 262 262 262 261 261 260 259 258 257 258 258 258 258 258 258 257 257 256 255 254 253 253 253 254 255 255 255 255
Height
5834 5834 5835 5835 5836 5836 5837 5838 5839 5839 5840 5841 5841 5841 5842 5842 5843 5843 5843 5843 5843 5844 5844 5844 5844 5844 5844 5844 5844 5844 5844 5844 5844 5844 5844 5844 5844 5844 5844 5844 5843 5843 5843
5832 5832 5833 5833 5834 5834 5835 5836 5837 5837 5838 5839 5839 5840 5840 5841 5841 5841 5842 5842 5842 5842 5842 5843 5843 5843 5843 5843 5843 5843 5843 5843 5843 5843 5843 5843 5843 5843 5843 5843 5843 5842 5842
5829 5830 5830 5831 5832 5832 5833 5834 5834 5835 5836 5837 5837 5838 5838 5839 5839 5839 5840 5840 5840 5841 5841 5841 5841 5841 5841 5841 5841 5842 5842 5842 5842 5842 5842 5842 5842 5842 5842 5842 5842 5842 5841
5827 5827 5828 5829 5829 5830 5831 5831 5832 5832 5833 5834 5835 5835 5836 5836 5837 5837 5838 5838 5838 5839 5839 5839 5839 5839 5839 5839 5840 5840 5840 5840 5840 5841 5841 5841 5841 5841 5841 5841 5841 5841 5841
5824 5824 5825 5826 5827 5827 5828 5829 5829 5830 5831 5831 5832 5832 5833 5834 5834 5835 5835 5836 5836 5836 5837 5837 5837 5837 5837 5838 5838 5838 5838 5838 5838 5839 5839 5839 5839 5840 5840 5840 5840 5840 5840
5820 5821 5821 5822 5823 5824 5825 5826 5826 5827 5827 5828 5829 5830 5830 5831 5831 5832 5832 5833 5833 5834 5834 5834 5834 5835 5835 5835 5835 5836 5836 5836 5836 5837 5837 5838 5838 5838 5838 5838 5839 5839 5839
5816 5817 5817 5818 5819 5820 5821 5822 5823 5823 5824 5825 5826 5826 5827 5827 5828 5828 5829 5829 5830 5831 5831 5831 5832 5832 5832 5833 5833 5833 5833 5834 5834 5834 5835 5835 5836 5836 5837 5837 5837 5837 5837
5811 5812 5813 5814 5815 5816 5817 5818 5819 5819 5820 5821 5822 5823 5823 5824 5824 5825 5825 5826 5827 5827 5828 5828 5828 5829 5829 5830 5830 5830 5831 5831 5831 5832 5832 5833 5833 5834 5834 5835 5835 5835 5835
5806 5807 5808 5809 5810 5811 5812 5813 5814 5815 5816 5817 5817 5818 5819 5819 5820 5821 5821 5822 5822 5823 5824 5824 5824 5825 5825 5826 5827 5827 5828 5828 5828 5829 5829 5830 5831 5831 5832 5832 5833 5833 5833
5801 5801 5802 5803 5804 5805 5806 5807 5808 5810 5811 5812 5813 5813 5814 5815 5815 5816 5817 5817 5818 5818 5819 5820 5820 5821 5821 5822 5823 5823 5824 5824 5825 5825 5826 5827 5828 5828 5829 5829 5830 5830 5831
5795 5795 5796 5797 5798 5799 5800 5801 5803 5804 5805 5806 5807 5808 5809 5810 5810 5811 5812 5812 5813 5813 5814 5815 5816 5816 5817 5817 5818 5819 5820 5821 5821 5822 5823 5823 5824 5825 5825 5826 5827 5827 5828
5788 5788 5789 5790 5791 5792 5793 5795 5796 5797 5799 5800 5801 5802 5803 5804 5805 5805 5806 5807 5808 5808 5809 5809 5810 5811 5812 5812 5813 5814 5815 5816 5817 5818 5818 5819 5820 5821 5822 5822 5823 5823 5824
5781 5781 5782 5783 5784 5785 5786 5787 5789 5790 5792 5793 5794 5796 5797 5797 5798 5799 5800 5801 5801 5802 5803 5803 5804 5805 5806 5807 5807 5808 5810 5811 5812 5813 5814 5815 5815 5816 5817 5818 5819 5819 5820
5773 5774 5774 5775 5776 5777 5778 5779 5781 5782 5784 5786 5787 5788 5790 5791 5791 5792 5793 5794 5795 5795 5796 5797 5797 5798 5799 5800 5801 5802 5803 5805 5806 5807 5808 5809 5810 5811 5812 5813 5814 5815 5816
5764 5765 5766 5766 5767 5768 5769 5771 5772 5774 5776 5777 5779 5780 5782 5783 5784 5785 5786 5787 5787 5788 5789 5789 5790 5791 5792 5793 5794 5795 5796 5798 5799 5801 5802 5803 5804 5805 5806 5808 5809 5810 5811
5756 5756 5757 5757 5758 5759 5760 5761 5763 5765 5766 5768 5770 5772 5773 5775 5776 5777 5778 5778 5779 5780 5781 5782 5782 5783 5784 5785 5786 5787 5789 5790 5791 5793 5795 5796 5798 5799 5800 5801 5802 5804 5805
5746 5747 5747 5748 5748 5749 5750 5751 5753 5755 5757 5759 5761 5762 5764 5765 5767 5768 5769 5769 5770 5771 5772 5773 5774 5775 5776 5777 5778 5779 5781 5782 5783 5785 5786 5788 5790 5791 5793 5794 5795 5797 5798
5736 5737 5737 5738 5738 5739 5739 5741 5742 5744 5746 5748 5750 5752 5754 5755 5756 5758 5759 5760 5760 5761 5763 5764 5765 5766 5767 5768 5769 5770 5772 5773 5775 5776 5778 5780 5782 5783 5785 5786 5788 5789 5791
5726 5727 5727 5727 5727 5728 5729 5730 5732 5734 5735 5738 5739 5741 5743 5744 5746 5747 5748 5749 5750 5751 5752 5754 5755 5756 5757 5758 5759 5761 5762 5763 5765 5767 5769 5770 5772 5774 5776 5778 5779 5781 5782
5716 5716 5716 5716 5717 5717 5718 5719 5721 5723 5725 5726 5728 5730 5731 5733 5734 5736 5737 5738 5739 5740 5742 5743 5744 5745 5746 5747 5749 5750 5752 5753 5755 5756 5758 5760 5762 5764 5766 5768 5770 5772 5774
5705 5705 5705 5705 5706 5706 5707 5709 5710 5712 5713 5715 5716 5718 5719 5721 5722 5723 5725 5727 5728 5729 5730 5731 5732 5734 5735 5736 5737 5739 5741 5742 5743 5745 5747 5750 5752 5754 5756 5758 5760 5762 5764
5694 5694 5694 5694 5695 5696 5696 5698 5699 5700 5702 5703 5704 5706 5707 5708 5710 5711 5712 5714 5715 5716 5718 5719 5720 5721 5723 5724 5725 5727 5729 5731 5732 5734 5736 5738 5741 5743 5745 5747 5749 5751 5753
5683 5683 5683 5683 5684 5685 5686 5686 5687 5688 5690 5691 5692 5693 5694 5695 5696 5698 5699 5700 5701 5703 5705 5706 5707 5708 5710 5711 5712 5714 5715 5718 5720 5722 5723 5726 5728 5731 5733 5735 5738 5740 5742
5673 5672 5672 5673 5673 5674 5674 5675 5676 5677 5678 5678 5679 5680 5680 5681 5682 5684 5685 5686 5687 5689 5691 5692 5693 5695 5696 5697 5698 5700 5702 5704 5706 5709 5711 5713 5715 5718 5720 5722 5725 5727 5729
5662 5662 5662 5662 5662 5663 5663 5664 5664 5665 5665 5665 5665 5666 5667 5668 5668 5669 5670 5672 5673 5675 5676 5678 5679 5680 5682 5683 5684 5686 5687 5689 5691 5694 5697 5700 5702 5704 5707 5709 5711 5714 5716
5651 5651 5651 5651 5651 5652 5652 5652 5652 5652 5652 5652 5652 5653 5653 5654 5654 5655 5656 5657 5658 5660 5661 5663 5664 5665 5667 5668 5670 5671 5673 5675 5677 5679 5682 5685 5688 5690 5692 5695 5697 5700 5702